Date String (YYYY-MM-DD hh:mm:ss) UTC,Instrument flags,absolute air pressure of the measurement (hPa),sample flow rate (lpm),inlet stack bypass flow (lpm),air temperature of the measurement (°C),ambient temperature measured by the external sensor (°C),aerosol sample conditioner tube jacket temperature (°C),OPC LED temperature (°C),internal box temperature (°C),relative humidity of the measurement (%),span deviation,mass concentration of particles derived from Lorenz-Mie calculation of OPC scattering (μg/m³),mass concentration of particles derived from Lorenz-Mie calculation of OPC scattering (μg/m³),mass concentration of particles derived from Lorenz-Mie calculation of OPC scattering (μg/m³)
DateTimeUTC,F1_M11,P_M11,Q1_M11,Q2_M11,T1_M11,T2_M11,T3_M11,T4_M11,T5_M11,U1_M11,ZSPAN_M11,X0_M11,X2_M11,X1_M11
2023-08-15 23:00:00,SystemResetWarning,0835.4,5.00,000.00,028.7,025.7,000.0,037.0,030.1,15.4,0000.0,0012.37,0004.38,0003.56
2023-08-15 23:01:00,SystemResetWarning,0835.5,5.00,000.00,028.7,026.2,000.0,037.0,030.2,15.5,0000.0,0011.75,0004.32,0003.56
2023-08-15 23:02:00,SystemResetWarning,0835.5,5.00,000.00,028.8,026.6,000.0,037.1,030.4,15.4,0000.0,0011.16,0004.33,0003.57
2023-08-15 23:03:00,SystemResetWarning,0835.4,5.00,000.00,028.8,027.0,000.0,037.1,030.6,15.5,0000.0,0011.27,0004.34,0003.56
2023-08-15 23:04:00,SystemResetWarning,0835.4,5.00,000.00,028.9,027.4,000.0,037.1,030.6,15.5,0000.0,0011.68,0004.32,0003.55
2023-08-15 23:05:00,SystemResetWarning,0835.4,5.00,000.00,029.0,027.6,000.0,037.1,030.7,15.8,0000.0,0011.82,0004.30,0003.54
2023-08-15 23:06:00,SystemResetWarning,0835.3,4.98,000.00,029.0,026.5,000.0,037.1,030.5,15.8,0000.0,0011.67,0004.32,0003.52
2023-08-15 23:07:00,SystemResetWarning,0835.3,5.01,000.00,028.9,025.1,000.0,037.0,030.2,15.7,0000.0,0011.21,0004.33,0003.52
2023-08-15 23:08:00,SystemResetWarning,0835.3,5.01,000.00,028.8,025.2,000.0,036.9,030.1,15.8,0000.0,0011.24,0004.30,0003.51
2023-08-15 23:09:00,SystemResetWarning,0835.3,4.99,000.00,028.8,025.5,000.0,037.0,030.1,15.6,0000.0,0010.28,0004.27,0003.50
2023-08-15 23:10:00,SystemResetWarning,0835.3,4.99,000.00,028.8,026.0,000.0,037.0,030.2,15.0,0000.0,0010.23,0004.24,0003.50
2023-08-15 23:11:00,SystemResetWarning,0835.3,5.01,000.00,028.8,026.4,000.0,037.0,030.4,14.7,0000.0,0010.34,0004.23,0003.51
2023-08-15 23:12:00,SystemResetWarning,0835.4,5.01,000.00,028.8,026.9,000.0,037.1,030.5,15.2,0000.0,0010.75,0004.21,0003.50
2023-08-15 23:13:00,SystemResetWarning,0835.3,5.00,000.00,028.9,027.2,000.0,037.1,030.6,15.3,0000.0,0011.41,0004.19,0003.50
2023-08-15 23:14:00,SystemResetWarning,0835.3,5.01,000.00,028.9,027.5,000.0,037.2,030.7,15.2,0000.0,0011.11,0004.19,0003.50
2023-08-15 23:15:00,SystemResetWarning,0835.2,4.98,000.00,029.0,026.5,000.0,037.1,030.5,14.9,0000.0,0010.73,0004.19,0003.51
2023-08-15 23:16:00,SystemResetWarning,0835.3,5.00,000.00,028.9,025.0,000.0,037.0,030.2,15.5,0000.0,0010.51,0004.19,0003.52
2023-08-15 23:17:00,SystemResetWarning,0835.3,5.02,000.00,028.8,025.1,000.0,036.9,030.1,15.2,0000.0,0010.39,0004.20,0003.53
2023-08-15 23:18:00,SystemResetWarning,0835.3,4.99,000.00,028.7,025.5,000.0,037.0,030.1,15.5,0000.0,0010.48,0004.18,0003.53
2023-08-15 23:19:00,SystemResetWarning,0835.3,5.00,000.00,028.7,025.9,000.0,037.0,030.2,15.1,0000.0,0010.35,0004.18,0003.53
2023-08-15 23:20:00,SystemResetWarning,0835.2,5.00,000.00,028.8,026.3,000.0,037.0,030.3,14.8,0000.0,0010.27,0004.18,0003.53
2023-08-15 23:21:00,SystemResetWarning,0835.2,5.00,000.00,028.8,026.8,000.0,037.1,030.5,14.8,0000.0,0010.11,0004.14,0003.52
2023-08-15 23:22:00,SystemResetWarning,0835.3,5.00,000.00,028.9,027.2,000.0,037.1,030.6,14.7,0000.0,0010.09,0004.13,0003.50
2023-08-15 23:23:00,SystemResetWarning,0835.3,4.99,000.00,028.9,027.5,000.0,037.1,030.7,14.4,0000.0,0010.01,0004.16,0003.49
2023-08-15 23:24:00,SystemResetWarning,0835.3,4.99,000.00,028.9,026.6,000.0,037.1,030.5,15.2,0000.0,0009.22,0004.18,0003.48
2023-08-15 23:25:00,SystemResetWarning,0835.2,5.00,000.00,028.9,025.1,000.0,037.0,030.2,15.2,0000.0,0008.93,0004.15,0003.47
2023-08-15 23:26:00,SystemResetWarning,0835.2,5.01,000.00,028.8,025.0,000.0,036.9,030.1,14.3,0000.0,0008.76,0004.12,0003.46
2023-08-15 23:27:00,SystemResetWarning,0835.2,5.01,000.00,028.7,025.4,000.0,036.9,030.1,14.2,0000.0,0009.18,0004.09,0003.45
2023-08-15 23:28:00,SystemResetWarning,0835.2,5.00,000.00,028.7,025.9,000.0,037.0,030.2,14.2,0000.0,0009.07,0004.05,0003.43
2023-08-15 23:29:00,SystemResetWarning,0835.2,5.00,000.00,028.8,026.3,000.0,037.0,030.3,15.1,0000.0,0009.00,0004.03,0003.42
2023-08-15 23:30:00,SystemResetWarning,0835.2,5.00,000.00,028.8,026.7,000.0,037.1,030.4,15.1,0000.0,0009.03,0004.01,0003.41
2023-08-15 23:31:00,SystemResetWarning,0835.2,5.00,000.00,028.9,027.1,000.0,037.1,030.6,15.3,0000.0,0010.12,0003.97,0003.40
2023-08-15 23:32:00,SystemResetWarning,0835.2,5.00,000.00,028.9,027.5,000.0,037.1,030.7,15.3,0000.0,0010.19,0003.95,0003.40
2023-08-15 23:33:00,SystemResetWarning,0835.2,4.99,000.00,029.0,026.7,000.0,037.1,030.5,15.1,0000.0,0010.48,0003.97,0003.40
2023-08-15 23:34:00,SystemResetWarning,0835.2,4.99,000.00,028.9,025.1,000.0,037.0,030.2,14.9,0000.0,0010.45,0003.95,0003.39
2023-08-15 23:35:00,SystemResetWarning,0835.1,5.02,000.00,028.8,025.0,000.0,036.9,030.1,14.3,0000.0,0010.62,0003.91,0003.39
2023-08-15 23:36:00,SystemResetWarning,0835.1,5.00,000.00,028.8,025.5,000.0,036.9,030.1,14.6,0000.0,0011.17,0003.90,0003.38
2023-08-15 23:37:00,SystemResetWarning,0835.1,5.00,000.00,028.7,025.9,000.0,037.0,030.2,14.6,0000.0,0011.19,0003.90,0003.37
2023-08-15 23:38:00,SystemResetWarning,0835.1,4.99,000.00,028.8,026.3,000.0,037.0,030.3,14.6,0000.0,0010.57,0003.91,0003.35
2023-08-15 23:39:00,SystemResetWarning,0835.1,5.00,000.00,028.8,026.7,000.0,037.0,030.4,15.6,0000.0,0010.44,0003.92,0003.36
2023-08-15 23:40:00,SystemResetWarning,0835.2,5.00,000.00,028.9,027.1,000.0,037.1,030.6,15.3,0000.0,0010.73,0003.95,0003.36
2023-08-15 23:41:00,SystemResetWarning,0835.2,5.01,000.00,028.9,027.5,000.0,037.1,030.7,14.7,0000.0,0011.13,0003.94,0003.37
2023-08-15 23:42:00,SystemResetWarning,0835.2,4.99,000.00,029.0,027.6,000.0,037.1,030.7,14.6,0000.0,0010.91,0003.97,0003.39
2023-08-15 23:43:00,SystemResetWarning,0835.1,4.98,000.00,029.0,026.1,000.0,037.0,030.5,14.4,0000.0,0010.69,0004.00,0003.40
2023-08-15 23:44:00,SystemResetWarning,0835.1,5.02,000.00,028.9,025.0,000.0,037.0,030.2,14.8,0000.0,0010.49,0003.99,0003.41
2023-08-15 23:45:00,SystemResetWarning,0835.1,5.00,000.00,028.8,025.3,000.0,036.9,030.2,14.2,0000.0,0010.32,0004.01,0003.43
2023-08-15 23:46:00,SystemResetWarning,0835.2,5.00,000.00,028.8,025.7,000.0,037.0,030.2,14.6,0000.0,0010.25,0004.01,0003.43
2023-08-15 23:47:00,SystemResetWarning,0835.2,5.01,000.00,028.8,026.1,000.0,037.0,030.2,14.4,0000.0,0009.62,0003.99,0003.42
2023-08-15 23:48:00,SystemResetWarning,0835.1,5.00,000.00,028.8,026.5,000.0,037.1,030.4,14.5,0000.0,0009.67,0004.00,0003.43
2023-08-15 23:49:00,SystemResetWarning,0835.1,5.00,000.00,028.9,026.9,000.0,037.1,030.5,14.8,0000.0,0009.59,0004.01,0003.44
2023-08-15 23:50:00,SystemResetWarning,0835.1,5.00,000.00,028.9,027.3,000.0,037.1,030.7,15.3,0000.0,0009.83,0003.98,0003.43
2023-08-15 23:51:00,SystemResetWarning,0835.1,5.00,000.00,029.0,027.5,000.0,037.2,030.7,15.7,0000.0,0009.79,0003.95,0003.42
2023-08-15 23:52:00,SystemResetWarning,0835.1,4.98,000.00,029.0,026.2,000.0,037.1,030.3,15.6,0000.0,0010.11,0003.97,0003.42
2023-08-15 23:53:00,SystemResetWarning,0835.0,5.01,000.00,028.8,024.9,000.0,037.0,030.1,16.1,0000.0,0009.58,0003.95,0003.40
2023-08-15 23:54:00,SystemResetWarning,0835.0,5.02,000.00,028.8,025.2,000.0,036.9,030.1,15.9,0000.0,0009.84,0003.94,0003.39
2023-08-15 23:55:00,SystemResetWarning,0835.0,5.00,000.00,028.7,025.6,000.0,037.0,030.1,15.5,0000.0,0009.72,0003.90,0003.37
2023-08-15 23:56:00,SystemResetWarning,0835.0,5.00,000.00,028.7,026.0,000.0,037.0,030.2,15.5,0000.0,0010.05,0003.88,0003.34
2023-08-15 23:57:00,SystemResetWarning,0835.0,5.00,000.00,028.8,026.5,000.0,037.0,030.3,15.8,0000.0,0010.66,0003.88,0003.34
2023-08-15 23:58:00,SystemResetWarning,0835.0,5.00,000.00,028.8,026.9,000.0,037.1,030.5,15.8,0000.0,0010.96,0003.89,0003.35
2023-08-15 23:59:00,SystemResetWarning,0835.1,5.01,000.00,028.9,027.3,000.0,037.1,030.6,15.8,0000.0,0011.17,0003.88,0003.34
